"Pseudo-MPEC" for P21TJrZ

Created 2024 Apr 23 16:22:07 UT using Find_Orb

Click here for an explanation of pseudo-MPECs

 
 Astrometry: 
     P21TJrZ* C2024 04 19b^$!fAstrometryOw!gZeAx#'$+%j8A'jPredacted;_WjI=!EZ`F52
     P21TJrZ  C2024 04 19J[LS3Num9FpDJU#:mDA7uZoe]fg)F'-\S:o'5btR.DPXSSMFQH^]F52
     P21TJrZ  C2024 04 19-F@Mg#Nndclick0G%Y)nu#F*vU)CV5F:;)!aI(N'0BktDJSM?OP?F52
     P21TJrZ KC2024 04 20.12566908 38 26.909+43 07 06.89   ~4K3b 21.56GVNEOCPI52
     P21TJrZ KC2024 04 20.13030408 38 27.992+43 06 58.64   ~4K3b 21.76GVNEOCPI52
     P21TJrZ KC2024 04 20.13495708 38 29.130+43 06 48.56   ~4K3b 20.52GVNEOCPI52
     P21TJrZ KC2024 04 20.13960708 38 30.199+43 06 39.89   ~4K3b 20.89GVNEOCPI52
     P21TJrZ  C2024 04 203Rp)byMhshere2*V3E%ot`p,:VTgu]r;p$eyf*-S7/for)\iy0OYF51
     P21TJrZ  C2024 04 20'[YulgcgJ5\t9Gt@TdM.'d=0`cejBlKVgqw*9H?uBYwp9=K#DY^bF51
     P21TJrZ KC2024 04 22.20221108 46 37.931+42 00 11.16   ~4M6M 20.99GVNEOCPI52
     P21TJrZ KC2024 04 22.21027508 46 39.724+41 59 54.64   ~4M6M 20.90GVNEOCPI52
     P21TJrZ KC2024 04 22.21833608 46 41.574+41 59 39.73   ~4M6M 21.10GVNEOCPI52
     P21TJrZ KC2024 04 22.22642708 46 43.403+41 59 23.35   ~4M6M 20.88GVNEOCPI52
     P21TJrZ 7C2024 04 22PIb72M'/s,?;$Eq?laxC1k:\H^o-FVc7BjrQdXpYexplanation6Z84
     P21TJrZ 7C2024 04 22gX-+wTFOQX@lni*dP+d,nU(^'Z9*5*KnkWkE#AQ[;CP^'n422tZAZ84

Station data:
(F51) Pan-STARRS 1, Haleakala  (N20.707234 W156.255910)  US/Hawaii.
   Observers J. Bulger, T. Lowe, A. Schultz, M. Willman. Measurers K.
   Chambers, S. Chastel, T. de Boer, L. Denneau, J. Fairlamb, H. Flewelling,
   M. Huber, C.-C. Lin, E. Magnier, Y. Ramanjooloo, R. Wainscoat, R. Weryk.
   1.8-m Ritchey-Chrétien + CCD.
(F52) Pan-STARRS 2, Haleakala  (N20.707382 W156.255910)  US/Hawaii.
   Observers J. Bulger, T. Dukes, T. Lowe, A. Schultz, M. Willman. Measurers
   K. Chambers, S. Chastel, T. de Boer, L. Denneau, J. Fairlamb, H.
   Flewelling, M. Huber, C.-C. Lin, E. Magnier, Y. Ramanjooloo, R. Wainscoat,
   R. Weryk. 1.8-m Ritchey-Chrétien + CCD.
(I52) Steward Observatory, Mt. Lemmon Station  (N32.442570 W110.788920)
   US/Arizona.  Observers T. A. Pruyne, B. M. Africano, E. J. Christensen, G.
   A. Farneth, D. C. Fuls, A. R. Gibbs, A. D. Grauer, H. Gröller, J. A.
   Johnson, R. A. Kowalski, S. M. Larson, G. J. Leonard, D. Rankin, R. L.
   Seaman, F. C. Shelly, K. W. Wierzchoś. 1.0-m prime focus + CCD.
(Z84) Calar Alto-Schmidt  (N37.224046 W2.548210)  Spain.  Observer F. Ocana.
   Measurers E. Schwab, D. Koschny, M. Micheli. 0.8-m f/3 Schmidt + CCD.

Orbital elements:  P21TJrZ
   Perihelion 2023 Dec 31.72063 +/- 0.447 TT = 17:17:42 (JD 2460310.22063)
Epoch 2024 Apr 22.0 TT = JDT 2460422.5   Earth MOID: 0.0636   Ve: 0.0261
M 148.04447940 +/- 0.8              (J2000 ecliptic)             AutoNEOCP
n   1.31853677 +/- 0.00261          Peri.  298.80324 +/- 0.44
a   0.82364718 +/- 0.00109          Node    86.04289 +/- 0.43
e   0.3764563 +/- 0.00373           Incl.    9.71026 +/- 0.12
P   0.75/273.02d           H 20.54  G  0.15   U  8.8
q 0.51357997 +/- 0.00257    Q 1.13371439 +/- 0.00436
From 15 observations 2024 Apr. 19-22; mean residual 0".30
Residuals in arcseconds: 
240419 F52  .12-  .05-    240420 I52  .25+  .29-    240422 I52  .32-  .89-    
240419 F52  .11+  .15-    240420 I52  .01-  .15+    240422 I52  .23+  .11+    
240419 F52  .01+  .11+    240420 F51  .03-  .08+    240422 I52  .45+  .29-    
240420 I52  .19-  .14-    240420 F51  .05+  .01+    240422 Z84  .39-  .08+    
240420 I52  .25-  .68+    240422 I52  .26-  .27-    240422 Z84  .32+  .48+    

Ephemerides (geocentric):
Date (UTC) HH   RA             Dec           delta  r     elong  mag " sig PA
---- --------  ------------   ------------  ------ ------ -----  --- --------
2024 04 23 16  08 52 08.685   +41 13 18.69  .47119 1.1116  90.1 21.4 .241   2
2024 04 23 17  08 52 17.878   +41 11 58.93  .47142 1.1117  90.1 21.4 .250   3
2024 04 23 18  08 52 27.060   +41 10 39.18  .47165 1.1118  90.1 21.4 .259   4
2024 04 23 19  08 52 36.231   +41 09 19.44  .47187 1.1119  90.1 21.4 .268   5
2024 04 23 20  08 52 45.393   +41 07 59.72  .47210 1.1119  90.1 21.4 .277   5
2024 04 23 21  08 52 54.544   +41 06 40.02  .47233 1.1120  90.1 21.4 .287   6
2024 04 23 22  08 53 03.686   +41 05 20.32  .47255 1.1121  90.1 21.4 .297   7
2024 04 23 23  08 53 12.817   +41 04 00.65  .47278 1.1122  90.1 21.4 .307   8
2024 04 24 00  08 53 21.938   +41 02 40.98  .47301 1.1123  90.1 21.4 .317   8
2024 04 24 01  08 53 31.049   +41 01 21.33  .47323 1.1123  90.1 21.4 .327   9
2024 04 24 02  08 53 40.149   +41 00 01.70  .47346 1.1124  90.1 21.4 .338  10
2024 04 24 03  08 53 49.240   +40 58 42.08  .47369 1.1125  90.1 21.4 .348  10
2024 04 24 04  08 53 58.321   +40 57 22.48  .47391 1.1126  90.1 21.4 .359  11
2024 04 24 05  08 54 07.392   +40 56 02.89  .47414 1.1127  90.1 21.4 .370  11
2024 04 24 06  08 54 16.453   +40 54 43.32  .47437 1.1127  90.1 21.4 .382  12
2024 04 24 07  08 54 25.504   +40 53 23.76  .47459 1.1128  90.1 21.4 .393  12
2024 04 24 08  08 54 34.545   +40 52 04.21  .47482 1.1129  90.1 21.4 .405  13
2024 04 24 09  08 54 43.576   +40 50 44.68  .47505 1.1130  90.1 21.4 .416  13
2024 04 24 10  08 54 52.597   +40 49 25.17  .47527 1.1131  90.1 21.4 .428  14
2024 04 24 11  08 55 01.608   +40 48 05.67  .47550 1.1131  90.1 21.4 .441  14
2024 04 24 12  08 55 10.610   +40 46 46.19  .47573 1.1132  90.1 21.5 .453  14
2024 04 24 13  08 55 19.602   +40 45 26.72  .47595 1.1133  90.1 21.5 .465  15
2024 04 24 14  08 55 28.583   +40 44 07.26  .47618 1.1134  90.1 21.5 .478  15
2024 04 24 15  08 55 37.556   +40 42 47.83  .47641 1.1135  90.1 21.5 .491  16
2024 04 24 16  08 55 46.518   +40 41 28.40  .47663 1.1135  90.1 21.5 .504  16
2024 04 24 17  08 55 55.471   +40 40 09.00  .47686 1.1136  90.1 21.5 .517  16
2024 04 24 18  08 56 04.414   +40 38 49.60  .47709 1.1137  90.1 21.5 .530  17
2024 04 24 19  08 56 13.348   +40 37 30.23  .47731 1.1138  90.0 21.5 .544  17
2024 04 24 20  08 56 22.271   +40 36 10.87  .47754 1.1138  90.0 21.5 .558  17
2024 04 24 21  08 56 31.186   +40 34 51.52  .47777 1.1139  90.0 21.5 .571  17
2024 04 24 22  08 56 40.090   +40 33 32.19  .47799 1.1140  90.0 21.5 .585  18
2024 04 24 23  08 56 48.985   +40 32 12.88  .47822 1.1141  90.0 21.5 .600  18
2024 04 25 00  08 56 57.871   +40 30 53.58  .47845 1.1142  90.0 21.5 .614  18
2024 04 25 01  08 57 06.747   +40 29 34.29  .47867 1.1142  90.0 21.5 .628  18
2024 04 25 02  08 57 15.613   +40 28 15.03  .47890 1.1143  90.0 21.5 .643  19
2024 04 25 03  08 57 24.470   +40 26 55.78  .47913 1.1144  90.0 21.5 .658  19
2024 04 25 04  08 57 33.318   +40 25 36.54  .47936 1.1145  90.0 21.5 .673  19
2024 04 25 05  08 57 42.156   +40 24 17.32  .47958 1.1145  90.0 21.5 .688  19
2024 04 25 06  08 57 50.985   +40 22 58.12  .47981 1.1146  90.0 21.5 .704  19
2024 04 25 07  08 57 59.804   +40 21 38.93  .48004 1.1147  90.0 21.5 .719  20
2024 04 25 08  08 58 08.614   +40 20 19.76  .48026 1.1148  90.0 21.5 .735  20
2024 04 25 09  08 58 17.415   +40 19 00.60  .48049 1.1148  90.0 21.5 .751  20
2024 04 25 10  08 58 26.206   +40 17 41.46  .48072 1.1149  90.0 21.5 .767  20
2024 04 25 11  08 58 34.988   +40 16 22.33  .48094 1.1150  90.0 21.5 .783  20
2024 04 25 12  08 58 43.761   +40 15 03.23  .48117 1.1151  90.0 21.5 .799  21
2024 04 25 13  08 58 52.524   +40 13 44.13  .48140 1.1151  90.0 21.5 .816  21
2024 04 25 14  08 59 01.279   +40 12 25.06  .48162 1.1152  90.0 21.5 .832  21
2024 04 25 15  08 59 10.024   +40 11 06.00  .48185 1.1153  90.0 21.5 .849  21